This demonstration page uses our WeatherBlox Daily Observations layout. Learn more.

Hourly Observations for May 14, 2018

Temp ( °F °C ) Dew Point ( °F °C ) Humidity (%) Winds ( mph kmh ) Pressure ( in mb ) Visibility ( mi km ) Precip ( " mm )
12:15 am 00:15 Cloudy with Mist and Fog 57 14 57 14 100 100 Calm 30.06 1018 1 1.609344 0 0
12:35 am 00:35 Cloudy with Mist and Fog 57 14 57 14 100 100 SE 3 6 30.03 1017 0.75 1.207008 0 0
12:55 am 00:55 Cloudy with Mist and Fog 57 14 57 14 100 100 Calm 30.03 1017 0.75 1.207008 0 0
1:15 am 01:15 Cloudy with Mist and Fog 57 14 57 14 100 100 SE 5 7 30.03 1017 0.75 1.207008 0 0
1:35 am 01:35 Cloudy with Mist and Fog 57 14 57 14 100 100 Calm 30.03 1017 1 1.609344 0 0
1:55 am 01:55 Cloudy with Mist and Fog 57 14 57 14 100 100 Calm 30.03 1017 1 1.609344 0 0
2:15 am 02:15 Cloudy with Mist and Fog 57 14 57 14 100 100 Calm 30 1016 0.75 1.207008 0 0
2:35 am 02:35 Cloudy with Fog 57 14 57 14 100 100 Calm 30 1016 0.5 0.804672 0 0
2:55 am 02:55 Cloudy with Fog 57 14 57 14 100 100 Calm 30 1016 0.5 0.804672 0 0
3:15 am 03:15 Cloudy with Fog 57 14 57 14 100 100 Calm 29.97 1015 0.25 0.402336 0 0
3:35 am 03:35 Cloudy with Fog 57 14 57 14 100 100 Calm 29.97 1015 0.25 0.402336 0 0
3:55 am 03:55 Cloudy with Fog 57 14 57 14 100 100 Calm 30 1016 0.25 0.402336 0 0
4:15 am 04:15 Cloudy with Fog 57 14 57 14 100 100 Calm 29.97 1015 0.25 0.402336 0 0
4:35 am 04:35 Cloudy with Fog 57 14 57 14 100 100 Calm 30 1016 0.5 0.804672 0 0
4:55 am 04:55 Cloudy with Fog 57 14 57 14 100 100 Calm 30 1016 0.25 0.402336 0 0
5:15 am 05:15 Cloudy with Fog 57 14 57 14 100 100 Calm 30 1016 0.5 0.804672 0 0
5:35 am 05:35 Cloudy with Fog 57 14 57 14 100 100 Calm 30 1016 0.5 0.804672 0 0
5:55 am 05:55 Cloudy with Fog 57 14 57 14 100 100 NE 3 6 30 1016 0.5 0.804672 0 0
6:15 am 06:15 Cloudy with Fog 57 14 57 14 100 100 Calm 30 1016 0.25 0.402336 0 0
6:35 am 06:35 Cloudy with Fog 59 15 59 15 100 100 SE 3 6 30 1016 0.25 0.402336 0 0
6:55 am 06:55 Cloudy with Fog 59 15 59 15 100 100 Calm 30.03 1017 0.25 0.402336 0 0
7:15 am 07:15 Cloudy with Fog 59 15 59 15 100 100 Calm 30.03 1017 0.5 0.804672 0 0
7:35 am 07:35 Cloudy with Mist and Fog 59 15 59 15 100 100 Calm 30.03 1017 1.25 2.01168 0 0
7:55 am 07:55 Cloudy with Mist and Fog 59 15 59 15 100 100 Calm 30.03 1017 2.5 4.02336 0 0
8:15 am 08:15 Cloudy with Mist and Fog 59 15 59 15 100 100 Calm 30.03 1017 4 6.437376 0 0
8:35 am 08:35 Cloudy 59 15 59 15 100 100 Calm 30.03 1017 10 16.09344 0 0
8:55 am 08:55 Cloudy 61 16 61 16 100 100 Calm 30.03 1017 7 11.265408 0 0
9:15 am 09:15 Cloudy 61 16 61 16 100 100 Calm 30.03 1017 10 16.09344 0 0
9:35 am 09:35 Cloudy 61 16 61 16 100 100 S 3 6 30.03 1017 7 11.265408 0 0
9:55 am 09:55 Cloudy 61 16 61 16 100 100 Calm 30.03 1017 7 11.265408 0 0
10:15 am 10:15 Cloudy 61 16 61 16 100 100 Calm 30.03 1017 7 11.265408 0 0
10:35 am 10:35 Cloudy 61 16 61 16 100 100 S 3 6 30.03 1017 10 16.09344 0 0
10:55 am 10:55 Cloudy 63 17 63 17 100 100 Calm 30.03 1017 7 11.265408 0 0
11:15 am 11:15 Cloudy 64 18 63 17 94 94 Calm 30.03 1017 7 11.265408 0 0
11:35 am 11:35 Cloudy 64 18 63 17 94 94 Calm 30.03 1017 10 16.09344 0 0
11:55 am 11:55 Cloudy 64 18 63 17 94 94 Calm 30.03 1017 7 11.265408 0 0
12:15 pm 12:15 Cloudy 66 19 64 18 94 94 Calm 30.03 1017 7 11.265408 0 0
12:35 pm 12:35 Cloudy 68 20 64 18 88 88 WNW 3 6 30.03 1017 7 11.265408 0 0
12:55 pm 12:55 Partly Cloudy 70 21 64 18 83 83 Calm 30.03 1017 10 16.09344 0 0
1:15 pm 13:15 Sunny 72 22 64 18 78 78 Calm 30.03 1017 10 16.09344 0 0
1:35 pm 13:35 Sunny 72 22 66 19 83 83 Calm 30.03 1017 10 16.09344 0 0
1:55 pm 13:55 Sunny 73 23 68 20 83 83 Calm 30.03 1017 10 16.09344 0 0
2:15 pm 14:15 Sunny 75 24 68 20 78 78 Calm 30 1016 10 16.09344 0 0
2:35 pm 14:35 Sunny 77 25 68 20 74 74 Calm 30 1016 10 16.09344 0 0
2:55 pm 14:55 Sunny 79 26 68 20 70 70 S 5 7 29.97 1015 10 16.09344 0 0
3:15 pm 15:15 Sunny 79 26 68 20 70 70 SSE 7 11 29.97 1015 10 16.09344 0 0
3:35 pm 15:35 Sunny 81 27 68 20 66 66 SSE 8 13 29.97 1015 10 16.09344 0 0
3:55 pm 15:55 Sunny 81 27 70 21 70 70 S 8 13 29.97 1015 10 16.09344 0 0
4:15 pm 16:15 Sunny 82 28 70 21 66 66 S 8 13 29.97 1015 10 16.09344 0 0
4:35 pm 16:35 Sunny 82 28 70 21 66 66 SSW 6 9 29.97 1015 10 16.09344 0 0
4:55 pm 16:55 Partly Cloudy 82 28 70 21 66 66 SSE 12 19 29.94 1014 10 16.09344 0 0
5:15 pm 17:15 Partly Cloudy 82 28 70 21 66 66 S 7 11 29.97 1015 10 16.09344 0 0
5:35 pm 17:35 Mostly Cloudy with Thunderstorms 81 27 70 21 70 70 SSE 8 13 29.94 1014 10 16.09344 0 0
5:55 pm 17:55 Mostly Cloudy with Thunderstorms 81 27 70 21 70 70 SSE 6 9 29.94 1014 10 16.09344 0 0
6:15 pm 18:15 Cloudy with Heavy Thunderstorms 66 19 66 19 100 100 N 30 48 29.97 1015 1.5 2.414016 0.49 12.446
6:35 pm 18:35 Cloudy with Heavy Thunderstorms 64 18 64 18 100 100 NW 15 24 30.06 1018 1.5 2.414016 1.23 31.242
6:55 pm 18:55 Mostly Cloudy 64 18 64 18 100 100 N 3 6 30 1016 10 16.09344 1.29 32.766
7:15 pm 19:15 Mostly Cloudy 64 18 64 18 100 100 S 3 6 29.97 1015 10 16.09344 0.01 0.254
7:35 pm 19:35 Mostly Cloudy with Nearby Thunderstorms 64 18 64 18 100 100 SSE 9 15 29.94 1014 7 11.265408 0.03 0.762
7:55 pm 19:55 Mostly Cloudy with Rain 64 18 64 18 100 100 SE 14 22 29.91 1013 7 11.265408 0.06 1.524
8:15 pm 20:15 Mostly Cloudy with Light Rain 63 17 63 17 100 100 SE 8 13 29.88 1012 10 16.09344 0.01 0.254
8:35 pm 20:35 Cloudy with Light Rain 63 17 63 17 100 100 WNW 7 11 29.94 1014 10 16.09344 0.03 0.762
8:55 pm 20:55 Mostly Cloudy 63 17 63 17 100 100 S 5 7 29.97 1015 10 16.09344 0.03 0.762
9:15 pm 21:15 Mostly Cloudy with Light Rain 63 17 63 17 100 100 Calm 29.97 1015 10 16.09344 0 0
9:35 pm 21:35 Partly Cloudy 63 17 63 17 100 100 SW 6 9 30 1016 10 16.09344 0 0
9:55 pm 21:55 Clear 63 17 63 17 100 100 WSW 7 11 29.97 1015 10 16.09344 0 0
10:15 pm 22:15 Clear 63 17 63 17 100 100 SW 5 7 30 1016 10 16.09344 0 0
10:35 pm 22:35 Clear 63 17 63 17 100 100 W 8 13 30 1016 10 16.09344 0 0
10:55 pm 22:55 Clear 63 17 63 17 100 100 SW 7 11 30 1016 10 16.09344 0 0
11:15 pm 23:15 Clear 63 17 63 17 100 100 SW 7 11 30 1016 10 16.09344 0 0
11:35 pm 23:35 Clear 63 17 63 17 100 100 SW 8 13 30 1016 10 16.09344 0 0
11:55 pm 23:55 Clear 63 17 63 17 100 100 SW 7 11 30 1016 10 16.09344 0 0

Powered by AerisWeather